Regional Weather Roundup
Issued by NWS

Home | Current Version | Previous Version | Text Only | Print | Product List | Glossary On
Versions: 1 2 3 4 5 6 7 8 9 10 11 12 13 14 15 16 17 18 19 20 21 22 23 24 25 26 27 28 29 30 31 32 33 34 35 36 37 38 39 40 41 42 43 44 45 46 47 48 49 50
000
ASUS43 KLOT 211310
RWRIL

ILLINOIS REGIONAL WEATHER ROUNDUP
NATIONAL WEATHER SERVICE CHICAGO/ROMEOVILLE IL
800 AM CDT TUE OCT 21 2014

NOTE: "FAIR" INDICATES FEW OR NO CLOUDS BELOW 12,000 FEET WITH NO
SIGNIFICANT WEATHER AND/OR OBSTRUCTIONS TO VISIBILITY.

* THESE STATIONS ARE NOT UNDER NWS QUALITY CONTROL. THEY ALSO MAY NOT
  REPORT WEATHER SUCH AS PRECIPITATION OR FOG.

ILZ001-002-007-009-015-016-024-211400-
NORTHWEST ILLINOIS

CITY           SKY/WX    TMP DP  RH WIND       PRES   REMARKS
MOLINE         CLEAR     38  37  97 CALM      30.16R FOG
STERLING*      CLEAR     45  37  76 NE5       30.15R
SAVANNA*       CLEAR     37  36  96 N3        30.16R FOG
$$

ILZ003-004-008-010-011-017-018-211400-
NORTH CENTRAL ILLINOIS

CITY           SKY/WX    TMP DP  RH WIND       PRES   REMARKS
ROCKFORD       MOCLDY    47  38  71 N10       30.17R
FREEPORT*      CLOUDY    41  39  92 CALM      30.17R
ROCHELLE*      CLOUDY    42  40  93 N6        30.15R
DE KALB*       CLOUDY    44  39  84 N7        30.15R
PERU*          CLEAR     42  40  93 N7        30.14R
$$

ILZ005-006-012>014-019>023-211400-
NORTHEAST ILLINOIS

CITY           SKY/WX    TMP DP  RH WIND       PRES   REMARKS
CHICAGO-OHARE  MOCLDY    46  39  76 N14       30.12R
CHICAGO-MIDWAY MOCLDY    49  41  74 N9        30.12R
AURORA         CLEAR     44  38  79 N8        30.14R
LANSING*       CLOUDY    49  41  74 N10       30.11R
JOLIET*        PTCLDY    47  40  77 N8        30.13R
WAUKEGAN       CLOUDY    45  38  76 NW7       30.13R
DUPAGE AIRPORT PTCLDY    44  39  82 N7        30.13R
KANKAKEE*      CLOUDY    49  44  83 N6        30.11R
WHEELING       MOCLDY    47  40  76 N8        30.14R
MORRIS*        CLOUDY    45  42  90 N3        30.12R
ROMEOVILLE*    CLEAR     46  40  77 N8        30.13R
NORTHERLY ISL    N/A     50  42  74 NW16        N/A
$$

LMZ740>746-211400-
SOUTHERN LAKE MICHIGAN

STATION/POSITION SKY/WX   TEMP    WIND        PRES    VSBY  WAVE
                          AIR SEA DIR/SP/G                  HT/PER
                          (F)     (DEG/KT/KT) (MB)    (MI)  (FT/S)
SOUTHERN BUOY              51 54  350/ 21/ 23 1018.7R         6/ 7
WAUKEGAN HARBOR            46     340/ 10/ 13   N/A
HARRISON CRIB              50     350/ 23/ 27   N/A
BURNHAM HARBOR             49     320/  8/ 17   N/A
CALUMET HARBOR             50     320/  7/ 12 1018.1R
MICHIGAN CITY              50     330/ 27/ 32   N/A
$$

ILZ025>027-034>036-040-047-049-050-058-095>099-211400-
WEST-CENTRAL ILLINOIS

CITY           SKY/WX    TMP DP  RH WIND       PRES   REMARKS
QUINCY         CLEAR     41  39  93 NE7       30.12R
GALESBURG*     CLEAR     37  36  99 CALM      30.15R
MACOMB*        CLEAR     40  38  94 N3        30.17R
JACKSONVILLE*  CLEAR     46  43  88 N7        30.13R
PITTSFIELD*    CLEAR     47  43  84 NE5       30.13R
$$

ILZ028>032-037-038-041>044-048-051>054-059>061-211400-
CENTRAL ILLINOIS

CITY           SKY/WX    TMP DP  RH WIND       PRES   REMARKS
PONTIAC        CLEAR     45  43  93 N5        30.12R
BLOOMINGTON    CLEAR     43  40  89 N6        30.13R
DECATUR        CLEAR     45  42  89 N6        30.11R
PEORIA         CLEAR     46  39  76 N5        30.14R
LACON*         CLEAR     40  38  91 CALM      30.13R
LINCOLN*       CLEAR     44  41  89 N3        30.12R
SPRINGFIELD    CLEAR     44  41  89 CALM      30.13R
TAYLORVILLE    CLEAR     39  39 100 N3        30.11R FOG
$$

ILZ033-039-045-046-055>057-062-063-211400-
EAST-CENTRAL ILLINOIS

CITY           SKY/WX    TMP DP  RH WIND       PRES   REMARKS
CHAMPAIGN      PTCLDY    45  43  93 NW6       30.10R
DANVILLE*      CLOUDY    48  45  88 NW7       30.06R
RANTOUL*       CLEAR     48  43  82 N8        30.11R
MATTOON        CLOUDY    40  39  97 NW5       30.09R
PARIS*         CLOUDY    48  47  99 CALM      30.10R FOG
$$

ILZ079-100>102-211400-
SOUTHWEST ILLINOIS

CITY           SKY/WX    TMP DP  RH WIND       PRES   REMARKS
BELLEVILLE     CLEAR     47  46  95 NW1       30.09R
CAHOKIA*       CLEAR     45  43  93 CALM      30.10R
SPARTA*        CLEAR     48  44  85 CALM      30.09R
$$

ILZ064>066-069>071-074>076-080>082-084>086-088>090-092>094-211400-
SOUTH-CENTRAL ILLINOIS

CITY           SKY/WX    TMP DP  RH WIND       PRES   REMARKS
CARBONDALE     CLEAR     45  43  93 CALM      30.08R
CAIRO*         CLEAR     46  44  93 CALM      30.07R
EFFINGHAM*     CLEAR     43  41  93 CALM      30.09R FOG
MARION         CLEAR     46  45  93 CALM      30.08R
MT. VERNON     CLEAR     41  36  81 CALM      30.08R
CENTRALIA*     CLEAR     44  41  91 CALM      30.08R
SALEM*         CLEAR     45  44  99 CALM      30.08R
METROPOLIS*    CLEAR     45  45 100 CALM      30.07R
$$

ILZ067-068-072-073-078-083-087-091-211400-
SOUTHEAST ILLINOIS

CITY           SKY/WX    TMP DP  RH WIND       PRES   REMARKS
LAWRENCEVILLE  PTCLDY    44  43  96 CALM      30.08R FOG
FLORA*         CLEAR     45  44  97 N5        30.09R
FAIRFIELD*     CLEAR     44  44  98 CALM      30.07R
HARRISBURG*    CLEAR     43  43 100 CALM      30.08R
ROBINSON*      MOCLDY    45  45 100 CALM      30.09R
CARMI*         CLEAR     47  47 100 CALM      30.07R
$$

ABBREVIATIONS USED IN REMARKS
   TC - TEMPERATURE IN CELSIUS
  WCI - WIND CHILL INDEX
   HX - HEAT INDEX
  VSB - VISIBILITY
$$



USA.gov is the U.S. government's official web portal to all federal, state and local government web resources and services.